Find Starlink 2336

NORAD ID: 47879 Int'l Des: 2021-021 Owner: SPXS Country: US Constellation: starlink operational
LEOCIRCULAR

リアルタイム位置

3D地球を読み込み中...

Starlink 2336について

説明を読み込み中...

次回通過

Passes for default location (London). Set your location on the main map for personalized predictions.

高度履歴

Loading altitude history...

軌道要素

1 47879U 21021V 26124.41166429 .00071327 00000-0 13431-2 0 9993
2 47879 53.1581 16.3021 0004220 128.2779 231.8609 15.47897715284857
Epoch: May 4, 2026 • Age: 8 hours

現在のステータス

高度 425.5 km
速度 7.66 km/s
衛星直下点 39.04°N, 78.5°W
打ち上げ日 Mar 14, 2021
運用期間 5.1 years
タイプ internet

技術仕様

分類 Payload
質量 260.00 kg
乾燥質量 248.00 kg
総質量 260.00 kg
長さ 0.20 m
直径 2.80 m
スパン 9.00 m
形状 Box + pan
製造者 SPXS
バスタイプ Starlink
フェーズステータス In Orbit
所有者/国 SPXS/US

Most Searched